Погода в Кизнере

Россия / Удмуртская Республика     56°18′46″N   51°30′37″E
темп.,
°C
ветер,
м/с
пор.,
м/с
влажн.,
%
обл.,
%
осадки,
мм/ч
давл.,
гПа
погр.,
м
25 октября, пн
пн2501:00+4зюз3772100 0.0 1012516
04:00+4юз2572100 0.0 1012218
07:00+3зюз2477100 0.0 1012115
10:00+3з3696100 0.1 1014412
13:00+1с598194 0.2 1016850
16:00+2ссз510635 0.2 10181125
19:000сз410765 0.0 1022564
22:00−2зсз39815 0.0 1023321
26 октября, вт
вт2601:00−3з388220 0.0 1024247
04:00−2зюз397897 0.0 1023313
07:00−1юз41270100 0.0 1022589
10:00+1юз51360100 0.1 1021821
13:00+2зюз61274100 0.2 1020795
16:00+3зюз5106390 0.3 1019937
19:00+2зюз4107394 0.0 1019594
22:00+2зюз4107599 0.0 1020517
27 октября, ср
ср2701:000юз3885100 0.0 1020265
04:00−1юз3887100 0.0 1019252
07:00−1юз3890100 0.0 1019222
10:00+1юз497495 0.0 1019399
13:00+4юз4963100 0.0 1018633
16:00+4юз41065100 0.0 1017649
19:00+3юз51269100 0.0 1015547
22:00+3юз51466100 0.0 1014592
28 октября, чт
чт2801:00+3юз51468100 0.0 1011621
04:00+2зюз61484100 0.3 1010855
07:00+3зюз61497100 1.9 1008930
10:00+5з71385100 2.3 10091134
13:00+5з71282100 0.0 10111099
16:00+5з51088100 0.1 1012971
19:00+5з4108395 0.4 1013794
22:00+5з4108499 0.6 1012601
29 октября, пт
пт2901:00+5з41086100 0.1 1012682
04:00+3зсз4993100 0.3 1013860
07:00−2ссз510775 0.1 1016693
10:00−3ссз596946 0.1 1020800
13:00−1с575998 0.0 10221030
16:00−1с48665 0.0 1025883
19:00−3с39755 0.0 1029559
22:00−4с37795 0.0 1031357